Rush City, MN

10:57 PM CDT on September 20, 2017 (GMT -0500)
Rush City Regional

Weather History for KROS - December, 2012

Change the Weather History Date:

Wednesday, December 19, 2012

  Actual Average (KCBG) Record (KCBG)
Temperature  
Mean Temperature 26 °F -  
Max Temperature 30 °F 22 °F 42 °F (1956)
Min Temperature 22 °F 5 °F -41 °F (1983)
Degree Days  
Heating Degree Days 39    
Moisture  
Dew Point 24 °F    
Average Humidity 89    
Maximum Humidity 94    
Minimum Humidity 80    
Precipitation  
Precipitation 0.00 in - - ()
Sea Level Pressure  
Sea Level Pressure 29.93 in    
Wind  
Wind Speed 4 mph (SSW)    
Max Wind Speed 8 mph    
Max Gust Speed -    
Visibility 10 miles    
Events      
Averages and records for this station are not official NWS values.
T = Trace of Precipitation, MM = Missing Value Source: NWS Daily Summary

Daily Weather History Graph

Daily Weather History Graph

Search for Another Location

Airport or City:

Trip Planner

Search our weather history database for the weather conditions in past years. The results will help you decide how hot, cold, wet, or windy it might be!

Date:

Astronomy

Dec. 19, 2012 Rise Set
Actual Time 7:48 AM CST 4:29 PM CST
Civil Twilight 7:14 AM CST 5:04 PM CST
Nautical Twilight 6:36 AM CST 5:41 PM CST
Astronomical Twilight 6:00 AM CST 6:18 PM CST
Moon 11:37 AM CST (12/19) No Moon Set
Length of Visible Light 9h 49m
Length of Day
8h 40m
Waxing Crescent, 45% of the Moon is Illuminated
Dec 19
Waxing Crescent
Dec 19
First Quarter
Dec 28
Full
Jan 4
Last Quarter
Jan 11
New

Hourly Weather History & Observations

Time (CST) Temp. Windchill Dew Point Humidity Pressure Visibility Wind Dir Wind Speed Gust Speed Precip Events Conditions
12:14 AM 22.8 °F 16.7 °F 21.0 °F 93% 29.82 in 7.0 mi South 4.6 mph - N/A   Overcast
12:35 AM 23.0 °F 18.4 °F 21.0 °F 92% 29.82 in 10.0 mi South 3.5 mph - N/A   Overcast
12:55 AM 23.0 °F - 21.2 °F 93% 29.82 in 10.0 mi Calm Calm - N/A   Overcast
1:14 AM 23.0 °F 18.4 °F 21.2 °F 93% 29.82 in 7.0 mi SSE 3.5 mph - N/A   Overcast
1:35 AM 23.0 °F 17.0 °F 21.6 °F 94% 29.82 in 7.0 mi SE 4.6 mph - N/A   Overcast
1:55 AM 23.5 °F 19.1 °F 21.9 °F 94% 29.83 in 7.0 mi South 3.5 mph - N/A   Overcast
2:14 AM 23.7 °F 16.6 °F 22.1 °F 94% 29.83 in 7.0 mi SSE 5.8 mph - N/A   Overcast
2:35 AM 23.9 °F 18.0 °F 22.5 °F 94% 29.84 in 7.0 mi South 4.6 mph - N/A   Overcast
2:55 AM 24.3 °F 17.3 °F 22.8 °F 94% 29.84 in 7.0 mi South 5.8 mph - N/A   Overcast
3:14 AM 24.6 °F 18.8 °F 23.0 °F 94% 29.83 in 10.0 mi South 4.6 mph - N/A   Overcast
3:35 AM 25.0 °F 19.3 °F 23.5 °F 94% 29.83 in 10.0 mi South 4.6 mph - N/A   Overcast
3:55 AM 25.3 °F 21.1 °F 23.7 °F 94% 29.84 in 10.0 mi South 3.5 mph - N/A   Overcast
4:14 AM 25.5 °F - 23.9 °F 94% 29.83 in 10.0 mi Calm Calm - N/A   Overcast
4:35 AM 25.7 °F - 23.9 °F 93% 29.84 in 10.0 mi Calm Calm - N/A   Overcast
4:55 AM 25.7 °F - 24.3 °F 94% 29.84 in 10.0 mi Calm Calm - N/A   Overcast
5:14 AM 25.9 °F - 24.4 °F 94% 29.84 in 10.0 mi Calm Calm - N/A   Overcast
5:35 AM 26.2 °F - 24.8 °F 94% 29.85 in 10.0 mi Calm Calm - N/A   Overcast
5:55 AM 26.6 °F 22.6 °F 24.8 °F 93% 29.86 in 10.0 mi South 3.5 mph - N/A   Overcast
6:14 AM 26.8 °F 22.8 °F 25.2 °F 94% 29.88 in 10.0 mi South 3.5 mph - N/A   Overcast
6:35 AM 27.3 °F 23.4 °F 25.5 °F 93% 29.89 in 10.0 mi South 3.5 mph - N/A   Overcast
6:55 AM 27.5 °F 22.2 °F 25.3 °F 92% 29.89 in 10.0 mi South 4.6 mph - N/A   Overcast
7:14 AM 27.7 °F 21.3 °F 25.5 °F 92% 29.90 in 10.0 mi SSW 5.8 mph - N/A   Overcast
7:35 AM 28.0 °F 24.2 °F 25.2 °F 89% 29.90 in 10.0 mi SSW 3.5 mph - N/A   Overcast
7:54 AM 28.2 °F 24.4 °F 24.8 °F 87% 29.90 in 10.0 mi SSW 3.5 mph - N/A   Overcast
8:15 AM 28.0 °F 20.0 °F 24.8 °F 88% 29.91 in 10.0 mi SSW 8.1 mph - N/A   Overcast
8:35 AM 28.0 °F 22.8 °F 24.8 °F 88% 29.92 in 10.0 mi South 4.6 mph - N/A   Overcast
8:54 AM 28.2 °F 22.0 °F 25.0 °F 88% 29.92 in 10.0 mi SSW 5.8 mph - N/A   Overcast
9:15 AM 28.2 °F 23.1 °F 25.2 °F 88% 29.93 in 10.0 mi SSW 4.6 mph - N/A   Overcast
9:35 AM 28.4 °F 23.3 °F 25.3 °F 88% 29.93 in 10.0 mi South 4.6 mph - N/A   Overcast
9:54 AM 28.8 °F 23.7 °F 25.5 °F 88% 29.93 in 10.0 mi South 4.6 mph - N/A   Overcast
10:15 AM 28.8 °F 21.7 °F 25.3 °F 87% 29.94 in 10.0 mi SSW 6.9 mph - N/A   Overcast
10:26 AM 28.9 °F 21.1 °F 25.7 °F 88% 29.94 in 10.0 mi South 8.1 mph - N/A   Overcast
11:25 AM 30.2 °F 22.6 °F 26.6 °F 86% 29.95 in 10.0 mi South 8.1 mph - N/A   Overcast
11:45 AM 30.2 °F 24.3 °F 26.6 °F 86% 29.96 in 10.0 mi SSW 5.8 mph - N/A   Overcast
12:05 PM 30.2 °F 22.6 °F 26.6 °F 86% 29.96 in 10.0 mi South 8.1 mph - N/A   Overcast
12:33 PM 29.8 °F 23.0 °F 25.9 °F 85% 29.96 in 10.0 mi SSW 6.9 mph - N/A   Overcast
12:35 PM 29.8 °F 23.9 °F 25.9 °F 85% 29.96 in 10.0 mi South 5.8 mph - N/A   Overcast
12:54 PM 30.0 °F 22.4 °F 25.9 °F 85% 29.96 in 10.0 mi South 8.1 mph - N/A   Overcast
1:15 PM 30.2 °F 24.3 °F 26.4 °F 86% 29.96 in 10.0 mi SSW 5.8 mph - N/A   Overcast
1:35 PM 30.0 °F 24.1 °F 26.1 °F 85% 29.96 in 10.0 mi SSW 5.8 mph - N/A   Overcast
1:54 PM 30.6 °F 25.8 °F 26.4 °F 85% 29.95 in 10.0 mi SSE 4.6 mph - N/A   Overcast
2:14 PM 30.6 °F 23.8 °F 26.2 °F 84% 29.96 in 10.0 mi SSE 6.9 mph - N/A   Overcast
2:35 PM 30.2 °F 25.4 °F 26.1 °F 85% 29.97 in 10.0 mi South 4.6 mph - N/A   Overcast
2:55 PM 30.6 °F 25.8 °F 25.9 °F 83% 29.96 in 10.0 mi SSE 4.6 mph - N/A   Mostly Cloudy
3:14 PM 30.2 °F 25.4 °F 25.7 °F 83% 29.96 in 10.0 mi SSE 4.6 mph - N/A   Mostly Cloudy
3:35 PM 30.0 °F 23.2 °F 25.7 °F 84% 29.96 in 10.0 mi SSE 6.9 mph - N/A   Scattered Clouds
3:54 PM 29.1 °F 22.1 °F 25.2 °F 85% 29.97 in 10.0 mi South 6.9 mph - N/A   Clear
4:15 PM 28.0 °F 21.7 °F 24.4 °F 86% 29.96 in 10.0 mi SSE 5.8 mph - N/A   Clear
4:35 PM 27.1 °F 19.7 °F 23.9 °F 88% 29.96 in 10.0 mi South 6.9 mph - N/A   Clear
4:55 PM 27.1 °F 19.7 °F 24.4 °F 90% 29.96 in 10.0 mi SSE 6.9 mph - N/A   Clear
5:14 PM 26.6 °F 21.2 °F 24.1 °F 90% 29.96 in 10.0 mi South 4.6 mph - N/A   Clear
5:35 PM 27.1 °F - 24.8 °F 91% 29.98 in 10.0 mi Calm Calm - N/A   Mostly Cloudy
5:54 PM 26.4 °F - 24.1 °F 91% 29.98 in 10.0 mi Calm Calm - N/A   Mostly Cloudy
6:15 PM 25.9 °F - 23.9 °F 92% 29.96 in 10.0 mi Calm Calm - N/A   Mostly Cloudy
6:35 PM 24.6 °F - 22.8 °F 93% 29.97 in 10.0 mi Calm Calm - N/A   Overcast
6:54 PM 25.7 °F - 23.9 °F 93% 29.98 in 10.0 mi Calm Calm - N/A   Overcast
7:15 PM 26.1 °F - 24.4 °F 94% 29.99 in 10.0 mi Calm Calm - N/A   Overcast
7:35 PM 26.1 °F - 24.3 °F 93% 30.00 in 10.0 mi Calm Calm - N/A   Overcast
7:54 PM 26.6 °F - 24.8 °F 93% 30.00 in 10.0 mi Calm Calm - N/A   Overcast
8:15 PM 26.4 °F - 24.6 °F 93% 30.02 in 10.0 mi Calm Calm - N/A   Overcast
8:34 PM 26.4 °F - 24.3 °F 92% 30.02 in 10.0 mi Calm Calm - N/A   Overcast
8:55 PM 26.2 °F 20.7 °F 23.7 °F 90% 30.02 in 10.0 mi West 4.6 mph - N/A   Overcast
9:14 PM 25.7 °F 18.0 °F 21.4 °F 84% 30.02 in 10.0 mi West 6.9 mph - N/A   Overcast
9:35 PM 25.5 °F 19.9 °F 20.5 °F 81% 30.01 in 10.0 mi West 4.6 mph - N/A   Overcast
9:54 PM 25.2 °F 19.5 °F 20.1 °F 81% 30.00 in 10.0 mi West 4.6 mph - N/A   Overcast
10:15 PM 24.8 °F 20.5 °F 19.8 °F 81% 29.99 in 10.0 mi WNW 3.5 mph - N/A   Overcast
10:35 PM 24.4 °F 18.6 °F 19.4 °F 81% 29.98 in 10.0 mi NW 4.6 mph - N/A   Overcast
10:54 PM 24.3 °F 19.9 °F 19.0 °F 80% 29.96 in 10.0 mi NNW 3.5 mph - N/A   Overcast
11:15 PM 24.1 °F 19.7 °F 19.4 °F 82% 29.97 in 10.0 mi NNW 3.5 mph - N/A   Overcast
11:35 PM 23.9 °F 19.5 °F 19.8 °F 84% 29.98 in 10.0 mi WNW 3.5 mph - N/A   Overcast
11:54 PM 23.9 °F - 20.1 °F 85% 29.98 in 10.0 mi Calm Calm - N/A   Overcast